QPF
0.00 0.00 0.01 0.01 0.01 0.01 0.01 0.01 0.02 0.02 0.03 0.05 0.09 0.15 0.18 0.16 0.11 0.07 0.05 0.05 0.05 0.05 0.07 0.08 0.08 0.08 0.09 0.09 0.08 0.08 0.08 0.06 0.05 0.04 0.03 0.02 0.03 0.03 0.03 0.03 0.03 0.05 0.04
0.00 0.00 0.01 0.00 0.01 0.01 0.01 0.01 0.02 0.03 0.06 0.06 0.07 0.12 0.20 0.26 0.22 0.15 0.08 0.06 0.06 0.06 0.08 0.10 0.11 0.13 0.16 0.15 0.11 0.09 0.10 0.09 0.05 0.04 0.04 0.02 0.02 0.02 0.03 0.05 0.05 0.06 0.06
0.01 0.01 0.01 0.01 0.01 0.01 0.01 0.02 0.03 0.03 0.04 0.05 0.05 0.06 0.09 0.14 0.18 0.16 0.10 0.06 0.06 0.06 0.08 0.11 0.10 0.12 0.14 0.16 0.14 0.10 0.09 0.11 0.08 0.05 0.05 0.04 0.02 0.02 0.03 0.04 0.05 0.06 0.07
0.01 0.02 0.02 0.02 0.02 0.01 0.01 0.01 0.02 0.03 0.03 0.03 0.03 0.02 0.02 0.04 0.06 0.10 0.11 0.08 0.06 0.05 0.07 0.11 0.11 0.12 0.11 0.11 0.11 0.10 0.09 0.09 0.09 0.08 0.07 0.06 0.04 0.04 0.04 0.04 0.04 0.05 0.05
0.02 0.03 0.03 0.03 0.04 0.04 0.02 0.02 0.02 0.03 0.02 0.02 0.02 0.02 0.01 0.02 0.03 0.03 0.04 0.04 0.04 0.05 0.05 0.06 0.09 0.10 0.10 0.10 0.11 0.11 0.10 0.09 0.09 0.10 0.09 0.07 0.07 0.05 0.04 0.04 0.04 0.04 0.05
0.02 0.02 0.03 0.03 0.04 0.04 0.03 0.03 0.02 0.01 0.01 0.01 0.01 0.02 0.03 0.03 0.02 0.02 0.02 0.03 0.05 0.06 0.05 0.05 0.06 0.06 0.07 0.08 0.09 0.09 0.09 0.08 0.08 0.09 0.08 0.07 0.05 0.06 0.07 0.05 0.04 0.03 0.03
0.01 0.02 0.02 0.02 0.02 0.02 0.02 0.01 0.01 0.02 0.02 0.01 0.02 0.02 0.03 0.03 0.03 0.03 0.03 0.04 0.03 0.04 0.05 0.05 0.04 0.04 0.04 0.04 0.06 0.07 0.07 0.07 0.07 0.08 0.08 0.08 0.08 0.10 0.09 0.05 0.04 0.04 0.04
0.01 0.02 0.02 0.02 0.01 0.01 0.01 0.01 0.01 0.01 0.02 0.02 0.03 0.03 0.03 0.03 0.03 0.03 0.02 0.02 0.02 0.02 0.03 0.03 0.03 0.03 0.02 0.03 0.05 0.06 0.06 0.06 0.08 0.09 0.08 0.07 0.07 0.08 0.09 0.08 0.06 0.05 0.05
0.01 0.01 0.02 0.03 0.02 0.02 0.01 0.02 0.02 0.02 0.03 0.03 0.04 0.04 0.04 0.04 0.04 0.03 0.02 0.03 0.03 0.02 0.02 0.02 0.02 0.02 0.02 0.02 0.03 0.04 0.05 0.06 0.08 0.09 0.08 0.06 0.05 0.05 0.06 0.06 0.08 0.09 0.08
0.02 0.02 0.02 0.02 0.03 0.03 0.03 0.04 0.04 0.04 0.04 0.04 0.05 0.06 0.07 0.06 0.04 0.03 0.03 0.02 0.02 0.02 0.01 0.01 0.02 0.03 0.03 0.02 0.01 0.02 0.03 0.04 0.04 0.06 0.10 0.10 0.05 0.04 0.05 0.05 0.06 0.09 0.09
0.03 0.03 0.03 0.03 0.03 0.04 0.04 0.06 0.05 0.04 0.04 0.06 0.07 0.06 0.06 0.05 0.04 0.03 0.02 0.02 0.01 0.01 0.01 0.01 0.01 0.02 0.02 0.01 0.02 0.02 0.02 0.03 0.03 0.03 0.05 0.08 0.08 0.06 0.05 0.05 0.06 0.07 0.09
0.02 0.02 0.02 0.02 0.02 0.02 0.03 0.04 0.04 0.05 0.05 0.06 0.06 0.06 0.07 0.07 0.06 0.04 0.03 0.02 0.01 0.01 0.02 0.01 0.01 0.01 0.01 0.02 0.03 0.03 0.02 0.03 0.02 0.02 0.03 0.04 0.07 0.07 0.07 0.06 0.05 0.06 0.08
0.02 0.01 0.01 0.01 0.01 0.01 0.02 0.03 0.03 0.04 0.05 0.05 0.05 0.07 0.07 0.06 0.05 0.05 0.05 0.03 0.02 0.01 0.01 0.01 0.01 0.01 0.01 0.01 0.02 0.03 0.03 0.03 0.02 0.02 0.02 0.03 0.04 0.05 0.07 0.08 0.05 0.04 0.07
0.03 0.02 0.02 0.02 0.01 0.01 0.03 0.04 0.04 0.04 0.05 0.05 0.05 0.05 0.04 0.03 0.04 0.04 0.03 0.03 0.02 0.01 0.01 0.01 0.01 0.01 0.01 0.01 0.02 0.02 0.02 0.03 0.02 0.02 0.02 0.02 0.03 0.03 0.04 0.06 0.08 0.06 0.05
0.02 0.02 0.02 0.02 0.02 0.03 0.04 0.07 0.07 0.06 0.05 0.05 0.04 0.03 0.03 0.02 0.02 0.03 0.04 0.04 0.04 0.02 0.01 0.01 0.01 0.01 0.01 0.01 0.03 0.03 0.02 0.03 0.04 0.03 0.02 0.02 0.03 0.03 0.03 0.04 0.06 0.09 0.07
0.05 0.04 0.04 0.05 0.05 0.04 0.03 0.04 0.05 0.07 0.08 0.07 0.05 0.03 0.03 0.03 0.03 0.03 0.03 0.03 0.04 0.03 0.01 0.01 0.01 0.01 0.01 0.02 0.03 0.03 0.03 0.04 0.04 0.04 0.03 0.03 0.03 0.04 0.04 0.04 0.04 0.06 0.08
0.06 0.06 0.05 0.06 0.06 0.06 0.05 0.04 0.04 0.04 0.07 0.10 0.08 0.06 0.05 0.04 0.04 0.03 0.02 0.02 0.03 0.04 0.02 0.01 0.01 0.01 0.02 0.03 0.03 0.04 0.05 0.05 0.04 0.05 0.04 0.03 0.04 0.04 0.04 0.05 0.05 0.05 0.07
0.07 0.06 0.04 0.04 0.04 0.04 0.03 0.04 0.04 0.04 0.04 0.05 0.04 0.05 0.05 0.04 0.04 0.03 0.02 0.03 0.02 0.03 0.03 0.01 0.01 0.02 0.03 0.03 0.04 0.04 0.04 0.04 0.03 0.03 0.03 0.02 0.03 0.04 0.04 0.04 0.05 0.05 0.05
0.10 0.09 0.07 0.05 0.05 0.04 0.04 0.04 0.04 0.04 0.04 0.04 0.04 0.03 0.03 0.03 0.03 0.02 0.02 0.02 0.02 0.03 0.03 0.03 0.03 0.03 0.03 0.03 0.04 0.04 0.04 0.03 0.03 0.03 0.02 0.02 0.02 0.03 0.05 0.05 0.05 0.05 0.05
0.05 0.05 0.05 0.04 0.04 0.04 0.05 0.05 0.06 0.06 0.04 0.03 0.02 0.02 0.02 0.02 0.01 0.02 0.02 0.02 0.03 0.04 0.04 0.05 0.05 0.05 0.05 0.04 0.04 0.04 0.05 0.05 0.04 0.03 0.03 0.03 0.02 0.03 0.04 0.06 0.06 0.05 0.05
0.04 0.04 0.04 0.04 0.05 0.05 0.05 0.05 0.05 0.05 0.04 0.03 0.02 0.02 0.02 0.02 0.02 0.02 0.03 0.02 0.03 0.04 0.04 0.05 0.05 0.05 0.04 0.04 0.04 0.04 0.05 0.06 0.07 0.06 0.05 0.04 0.03 0.03 0.04 0.05 0.07 0.07 0.06
0.03 0.04 0.04 0.04 0.04 0.04 0.03 0.03 0.03 0.02 0.01 0.01 0.01 0.02 0.02 0.02 0.02 0.03 0.03 0.03 0.03 0.03 0.03 0.03 0.03 0.03 0.04 0.04 0.05 0.05 0.06 0.07 0.08 0.07 0.08 0.07 0.05 0.05 0.04 0.05 0.07 0.09 0.06
0.02 0.02 0.03 0.03 0.02 0.01 0.02 0.02 0.02 0.02 0.01 0.01 0.01 0.02 0.02 0.02 0.02 0.02 0.02 0.03 0.03 0.03 0.03 0.03 0.03 0.02 0.03 0.04 0.05 0.06 0.06 0.06 0.07 0.08 0.09 0.10 0.08 0.06 0.04 0.04 0.06 0.06 0.06
0.04 0.03 0.02 0.01 0.01 0.01 0.02 0.03 0.03 0.02 0.01 0.01 0.02 0.03 0.04 0.05 0.04 0.03 0.03 0.02 0.01 0.01 0.02 0.02 0.02 0.02 0.02 0.03 0.04 0.05 0.06 0.08 0.10 0.10 0.09 0.09 0.08 0.06 0.05 0.04 0.05 0.05 0.06
0.03 0.02 0.02 0.02 0.02 0.01 0.02 0.02 0.03 0.03 0.03 0.03 0.03 0.04 0.03 0.03 0.02 0.02 0.03 0.02 0.01 0.01 0.01 0.02 0.01 0.02 0.03 0.04 0.05 0.06 0.06 0.07 0.07 0.08 0.08 0.07 0.07 0.04 0.04 0.04 0.04 0.04 0.04
0.02 0.02 0.01 0.01 0.01 0.02 0.02 0.02 0.03 0.02 0.02 0.03 0.02 0.02 0.02 0.02 0.02 0.02 0.03 0.03 0.02 0.01 0.01 0.01 0.02 0.02 0.04 0.05 0.05 0.06 0.06 0.06 0.05 0.05 0.06 0.08 0.06 0.04 0.03 0.03 0.03 0.04 0.04
MSLP
1012.38 1012.66 1012.88 1013.05 1013.22 1013.41 1013.63 1013.86 1014.09 1014.29 1014.41 1014.46 1014.42 1014.32 1014.19 1014.07 1013.99 1013.97 1014.03 1014.15 1014.33 1014.53 1014.74 1014.93 1015.11 1015.27 1015.40 1015.54 1015.67 1015.80 1015.94 1016.08 1016.21 1016.34 1016.46 1016.56 1016.66 1016.75 1016.84 1016.92 1016.99 1017.06 1017.13
1012.49 1012.77 1012.99 1013.16 1013.33 1013.50 1013.70 1013.92 1014.13 1014.30 1014.41 1014.44 1014.38 1014.26 1014.10 1013.93 1013.79 1013.72 1013.72 1013.80 1013.95 1014.15 1014.37 1014.59 1014.80 1014.98 1015.14 1015.28 1015.40 1015.52 1015.63 1015.74 1015.85 1015.96 1016.06 1016.16 1016.26 1016.35 1016.42 1016.49 1016.55 1016.61 1016.66
1012.46 1012.74 1012.97 1013.16 1013.34 1013.52 1013.72 1013.92 1014.12 1014.27 1014.36 1014.37 1014.30 1014.16 1013.96 1013.76 1013.58 1013.45 1013.40 1013.44 1013.55 1013.73 1013.94 1014.17 1014.40 1014.60 1014.77 1014.91 1015.03 1015.13 1015.22 1015.31 1015.39 1015.49 1015.58 1015.68 1015.77 1015.86 1015.93 1015.99 1016.04 1016.08 1016.11
1012.28 1012.56 1012.81 1013.04 1013.24 1013.45 1013.66 1013.86 1014.04 1014.18 1014.25 1014.25 1014.17 1014.01 1013.80 1013.57 1013.36 1013.19 1013.09 1013.07 1013.14 1013.28 1013.47 1013.68 1013.90 1014.10 1014.28 1014.42 1014.52 1014.61 1014.68 1014.76 1014.83 1014.91 1015.00 1015.10 1015.19 1015.28 1015.35 1015.40 1015.44 1015.47 1015.49
1011.97 1012.26 1012.54 1012.80 1013.05 1013.28 1013.51 1013.72 1013.89 1014.02 1014.08 1014.07 1013.98 1013.83 1013.61 1013.37 1013.14 1012.94 1012.80 1012.73 1012.74 1012.82 1012.96 1013.14 1013.33 1013.50 1013.66 1013.79 1013.88 1013.96 1014.02 1014.08 1014.15 1014.23 1014.32 1014.42 1014.51 1014.60 1014.68 1014.74 1014.78 1014.80 1014.82
1011.59 1011.88 1012.18 1012.48 1012.76 1013.04 1013.28 1013.50 1013.67 1013.79 1013.85 1013.84 1013.76 1013.61 1013.41 1013.18 1012.94 1012.72 1012.54 1012.42 1012.37 1012.38 1012.45 1012.55 1012.68 1012.82 1012.93 1013.03 1013.11 1013.17 1013.22 1013.28 1013.35 1013.43 1013.53 1013.64 1013.74 1013.84 1013.93 1014.00 1014.05 1014.08 1014.11
1011.17 1011.46 1011.78 1012.10 1012.41 1012.71 1012.97 1013.19 1013.36 1013.48 1013.54 1013.54 1013.48 1013.36 1013.20 1012.99 1012.76 1012.53 1012.32 1012.15 1012.03 1011.95 1011.93 1011.95 1012.00 1012.06 1012.12 1012.18 1012.23 1012.28 1012.32 1012.38 1012.45 1012.55 1012.66 1012.78 1012.90 1013.02 1013.12 1013.21 1013.28 1013.34 1013.39
1010.76 1011.04 1011.35 1011.68 1012.00 1012.31 1012.58 1012.80 1012.97 1013.09 1013.16 1013.18 1013.15 1013.07 1012.95 1012.78 1012.58 1012.36 1012.13 1011.90 1011.71 1011.54 1011.42 1011.34 1011.29 1011.27 1011.27 1011.28 1011.29 1011.32 1011.36 1011.41 1011.50 1011.60 1011.73 1011.87 1012.01 1012.15 1012.28 1012.40 1012.50 1012.60 1012.69
1010.37 1010.61 1010.89 1011.20 1011.52 1011.81 1012.07 1012.28 1012.45 1012.57 1012.65 1012.70 1012.72 1012.70 1012.63 1012.52 1012.36 1012.15 1011.90 1011.64 1011.38 1011.13 1010.91 1010.72 1010.57 1010.46 1010.39 1010.34 1010.32 1010.33 1010.36 1010.42 1010.51 1010.63 1010.78 1010.94 1011.10 1011.27 1011.43 1011.58 1011.73 1011.87 1012.03
1009.98 1010.16 1010.40 1010.67 1010.94 1011.20 1011.44 1011.63 1011.78 1011.90 1012.00 1012.09 1012.15 1012.19 1012.19 1012.13 1012.02 1011.84 1011.60 1011.32 1011.00 1010.68 1010.37 1010.09 1009.85 1009.66 1009.52 1009.42 1009.36 1009.35 1009.37 1009.44 1009.54 1009.67 1009.84 1010.02 1010.21 1010.41 1010.61 1010.80 1011.00 1011.20 1011.42
1009.56 1009.68 1009.84 1010.04 1010.26 1010.47 1010.65 1010.81 1010.94 1011.06 1011.18 1011.29 1011.40 1011.50 1011.57 1011.58 1011.52 1011.39 1011.17 1010.88 1010.53 1010.16 1009.79 1009.44 1009.13 1008.88 1008.68 1008.53 1008.45 1008.41 1008.43 1008.50 1008.61 1008.76 1008.94 1009.14 1009.36 1009.59 1009.83 1010.07 1010.31 1010.58 1010.86
1009.10 1009.13 1009.21 1009.33 1009.46 1009.60 1009.72 1009.84 1009.94 1010.05 1010.17 1010.31 1010.46 1010.62 1010.74 1010.82 1010.83 1010.74 1010.55 1010.28 1009.94 1009.55 1009.16 1008.77 1008.42 1008.12 1007.88 1007.71 1007.60 1007.55 1007.56 1007.62 1007.74 1007.90 1008.09 1008.32 1008.57 1008.83 1009.11 1009.40 1009.70 1010.02 1010.37
1008.59 1008.54 1008.53 1008.56 1008.60 1008.66 1008.71 1008.76 1008.82 1008.90 1009.02 1009.17 1009.35 1009.54 1009.71 1009.84 1009.91 1009.87 1009.74 1009.51 1009.20 1008.84 1008.45 1008.06 1007.70 1007.39 1007.14 1006.95 1006.82 1006.76 1006.76 1006.83 1006.94 1007.11 1007.32 1007.57 1007.85 1008.15 1008.46 1008.80 1009.15 1009.53 1009.93
1008.08 1007.95 1007.85 1007.78 1007.74 1007.70 1007.68 1007.66 1007.66 1007.70 1007.79 1007.92 1008.10 1008.31 1008.51 1008.68 1008.79 1008.82 1008.74 1008.57 1008.32 1008.01 1007.66 1007.32 1006.98 1006.69 1006.44 1006.26 1006.13 1006.06 1006.05 1006.11 1006.22 1006.40 1006.62 1006.89 1007.20 1007.53 1007.89 1008.27 1008.67 1009.10 1009.55
1007.63 1007.42 1007.24 1007.09 1006.96 1006.84 1006.72 1006.63 1006.56 1006.53 1006.56 1006.65 1006.80 1006.99 1007.20 1007.39 1007.53 1007.60 1007.58 1007.48 1007.31 1007.07 1006.80 1006.52 1006.24 1005.99 1005.78 1005.60 1005.48 1005.41 1005.40 1005.45 1005.56 1005.74 1005.98 1006.27 1006.60 1006.98 1007.38 1007.80 1008.25 1008.72 1009.22
1007.28 1007.02 1006.78 1006.55 1006.34 1006.13 1005.93 1005.74 1005.58 1005.47 1005.43 1005.44 1005.53 1005.67 1005.84 1006.01 1006.16 1006.26 1006.29 1006.26 1006.17 1006.03 1005.85 1005.65 1005.45 1005.26 1005.09 1004.95 1004.84 1004.78 1004.77 1004.81 1004.93 1005.11 1005.36 1005.68 1006.05 1006.47 1006.92 1007.39 1007.88 1008.39 1008.92
1007.08 1006.77 1006.48 1006.20 1005.92 1005.63 1005.34 1005.06 1004.80 1004.59 1004.43 1004.35 1004.34 1004.39 1004.49 1004.61 1004.74 1004.84 1004.91 1004.93 1004.92 1004.87 1004.78 1004.68 1004.57 1004.45 1004.34 1004.24 1004.16 1004.11 1004.10 1004.16 1004.28 1004.47 1004.75 1005.09 1005.51 1005.97 1006.47 1006.99 1007.53 1008.08 1008.64
1007.00 1006.67 1006.34 1006.01 1005.67 1005.31 1004.93 1004.56 1004.19 1003.86 1003.58 1003.37 1003.24 1003.18 1003.17 1003.22 1003.29 1003.37 1003.44 1003.51 1003.55 1003.57 1003.58 1003.57 1003.54 1003.51 1003.46 1003.40 1003.36 1003.33 1003.35 1003.41 1003.55 1003.77 1004.08 1004.47 1004.93 1005.45 1006.00 1006.59 1007.18 1007.77 1008.36
1006.99 1006.63 1006.28 1005.90 1005.51 1005.08 1004.63 1004.16 1003.69 1003.24 1002.84 1002.49 1002.22 1002.02 1001.90 1001.84 1001.83 1001.86 1001.92 1001.99 1002.07 1002.15 1002.23 1002.29 1002.34 1002.37 1002.39 1002.39 1002.39 1002.40 1002.44 1002.54 1002.72 1002.98 1003.33 1003.77 1004.29 1004.87 1005.49 1006.14 1006.78 1007.42 1008.05
1006.96 1006.58 1006.19 1005.78 1005.34 1004.86 1004.33 1003.78 1003.21 1002.65 1002.12 1001.65 1001.24 1000.91 1000.65 1000.48 1000.38 1000.34 1000.35 1000.40 1000.49 1000.60 1000.72 1000.84 1000.95 1001.05 1001.12 1001.17 1001.22 1001.28 1001.37 1001.52 1001.74 1002.06 1002.47 1002.98 1003.57 1004.23 1004.92 1005.63 1006.33 1007.02 1007.69
1006.83 1006.42 1006.00 1005.56 1005.07 1004.53 1003.94 1003.32 1002.67 1002.01 1001.38 1000.78 1000.25 999.80 999.43 999.14 998.93 998.81 998.76 998.78 998.85 998.96 999.10 999.25 999.40 999.54 999.66 999.76 999.87 999.98 1000.13 1000.34 1000.63 1001.02 1001.51 1002.10 1002.77 1003.51 1004.28 1005.06 1005.83 1006.57 1007.27
1006.56 1006.12 1005.66 1005.17 1004.64 1004.05 1003.41 1002.72 1002.00 1001.28 1000.56 999.88 999.25 998.69 998.21 997.82 997.52 997.32 997.20 997.16 997.19 997.28 997.42 997.58 997.75 997.91 998.07 998.22 998.37 998.55 998.77 999.05 999.42 999.90 1000.48 1001.16 1001.93 1002.75 1003.60 1004.45 1005.28 1006.07 1006.81
1006.16 1005.67 1005.17 1004.63 1004.05 1003.41 1002.72 1001.99 1001.22 1000.44 999.67 998.92 998.23 997.59 997.03 996.56 996.18 995.90 995.71 995.61 995.59 995.64 995.75 995.90 996.07 996.25 996.43 996.63 996.83 997.07 997.36 997.73 998.20 998.77 999.45 1000.23 1001.08 1001.99 1002.92 1003.85 1004.73 1005.57 1006.34
1005.70 1005.16 1004.60 1004.01 1003.38 1002.69 1001.95 1001.18 1000.37 999.55 998.74 997.95 997.21 996.53 995.92 995.39 994.94 994.59 994.34 994.18 994.11 994.11 994.18 994.30 994.46 994.65 994.85 995.08 995.34 995.64 996.02 996.47 997.03 997.70 998.48 999.36 1000.31 1001.30 1002.31 1003.29 1004.23 1005.10 1005.89
1005.26 1004.68 1004.07 1003.42 1002.72 1001.98 1001.19 1000.37 999.52 998.67 997.83 997.02 996.25 995.54 994.89 994.31 993.82 993.42 993.11 992.89 992.77 992.73 992.76 992.86 993.00 993.19 993.42 993.68 994.00 994.37 994.82 995.37 996.03 996.80 997.67 998.64 999.68 1000.74 1001.81 1002.84 1003.81 1004.70 1005.50
1004.95 1004.32 1003.66 1002.95 1002.19 1001.38 1000.53 999.65 998.76 997.88 997.00 996.16 995.37 994.63 993.95 993.34 992.81 992.36 992.01 991.75 991.58 991.51 991.51 991.59 991.73 991.93 992.18 992.49 992.87 993.32 993.85 994.49 995.25 996.11 997.08 998.13 999.23 1000.36 1001.47 1002.53 1003.52 1004.42 1005.21
Thickness
5775 5775 5774 5774 5774 5773 5773 5772 5771 5771 5770 5770 5769 5769 5769 5768 5768 5767 5767 5767 5766 5765 5764 5763 5761 5759 5758 5757 5755 5754 5753 5751 5749 5748 5747 5745 5744 5742 5741 5740 5739 5738 5737
5775 5774 5773 5773 5773 5773 5772 5771 5770 5769 5769 5768 5768 5768 5768 5768 5767 5767 5766 5766 5765 5764 5762 5761 5760 5758 5757 5756 5754 5753 5752 5750 5749 5747 5746 5744 5743 5742 5741 5739 5738 5737 5736
5775 5774 5773 5772 5772 5772 5771 5770 5769 5768 5768 5767 5767 5767 5766 5766 5765 5765 5764 5763 5762 5761 5760 5759 5758 5756 5756 5755 5754 5752 5751 5749 5748 5746 5744 5743 5742 5741 5740 5738 5737 5736 5735
5774 5773 5772 5771 5771 5770 5769 5768 5767 5765 5765 5764 5764 5764 5764 5764 5763 5762 5761 5761 5760 5759 5758 5757 5755 5754 5754 5753 5752 5751 5749 5748 5746 5744 5743 5742 5741 5739 5738 5737 5736 5735 5734
5773 5772 5771 5770 5769 5768 5767 5767 5765 5763 5762 5761 5761 5761 5761 5760 5760 5759 5758 5757 5756 5755 5754 5753 5752 5752 5752 5751 5750 5750 5748 5747 5745 5743 5742 5741 5739 5738 5736 5735 5734 5733 5732
5772 5771 5769 5768 5767 5765 5764 5763 5762 5761 5760 5759 5759 5758 5757 5757 5756 5755 5755 5754 5753 5752 5751 5750 5749 5749 5749 5748 5748 5747 5746 5745 5743 5742 5740 5738 5737 5736 5734 5733 5732 5731 5731
5771 5769 5768 5766 5764 5763 5762 5761 5760 5758 5756 5755 5752 5751 5752 5753 5752 5752 5751 5750 5750 5749 5748 5747 5746 5746 5745 5745 5744 5743 5742 5741 5741 5739 5738 5736 5734 5733 5732 5731 5731 5730 5729
5769 5768 5765 5763 5762 5760 5758 5758 5756 5754 5752 5752 5747 5743 5740 5743 5746 5749 5747 5746 5745 5745 5744 5743 5742 5741 5741 5740 5740 5740 5739 5738 5737 5736 5735 5733 5732 5731 5730 5728 5728 5727 5726
5767 5765 5763 5761 5759 5757 5755 5754 5753 5750 5747 5747 5746 5740 5734 5731 5735 5740 5741 5741 5740 5740 5739 5739 5738 5737 5736 5736 5735 5735 5735 5734 5733 5732 5731 5730 5729 5728 5727 5725 5724 5723 5723
5764 5763 5761 5759 5757 5755 5753 5752 5751 5748 5745 5742 5741 5740 5737 5735 5729 5729 5733 5735 5735 5735 5734 5734 5734 5733 5732 5731 5731 5731 5731 5730 5728 5728 5727 5727 5726 5725 5724 5722 5721 5720 5720
5761 5760 5758 5756 5754 5752 5750 5749 5747 5745 5743 5740 5737 5735 5732 5730 5728 5724 5723 5727 5728 5730 5730 5729 5729 5728 5727 5726 5726 5726 5726 5725 5724 5724 5723 5723 5722 5721 5720 5719 5718 5717 5716
5756 5755 5754 5752 5751 5749 5747 5745 5744 5742 5740 5737 5735 5732 5729 5727 5724 5721 5719 5720 5721 5724 5726 5725 5725 5724 5723 5722 5722 5722 5721 5721 5720 5719 5719 5718 5717 5717 5716 5715 5713 5712 5712
5752 5751 5751 5749 5747 5746 5744 5742 5740 5738 5736 5734 5732 5730 5727 5726 5724 5721 5718 5716 5716 5718 5720 5721 5721 5719 5719 5718 5717 5717 5717 5716 5715 5714 5714 5713 5712 5711 5710 5709 5708 5707 5707
5750 5749 5747 5745 5743 5742 5740 5738 5736 5733 5732 5729 5728 5726 5724 5723 5721 5719 5716 5713 5710 5711 5713 5714 5716 5715 5714 5713 5713 5712 5712 5711 5710 5709 5708 5707 5706 5705 5704 5703 5703 5703 5702
5748 5746 5744 5742 5739 5737 5736 5734 5731 5729 5727 5725 5723 5721 5720 5719 5718 5716 5714 5711 5707 5704 5707 5709 5709 5711 5710 5709 5708 5706 5706 5705 5704 5703 5702 5701 5700 5699 5699 5698 5698 5697 5697
5744 5742 5740 5738 5736 5734 5731 5728 5726 5724 5721 5720 5718 5716 5714 5713 5712 5710 5709 5707 5704 5702 5701 5705 5705 5705 5705 5705 5703 5701 5700 5699 5698 5697 5696 5695 5694 5693 5693 5692 5692 5691 5691
5741 5738 5735 5733 5731 5729 5726 5724 5721 5719 5717 5715 5713 5712 5710 5708 5707 5705 5704 5702 5700 5697 5695 5698 5698 5698 5698 5697 5696 5695 5694 5693 5692 5691 5690 5689 5688 5687 5687 5686 5685 5685 5684
5737 5734 5731 5728 5726 5724 5721 5718 5716 5714 5712 5710 5708 5707 5705 5704 5702 5700 5698 5696 5694 5692 5690 5689 5690 5690 5690 5689 5689 5688 5687 5687 5685 5685 5684 5683 5682 5682 5680 5679 5679 5678 5677
5732 5729 5726 5723 5721 5719 5716 5714 5712 5710 5707 5705 5703 5701 5700 5698 5696 5694 5692 5691 5689 5688 5685 5683 5683 5683 5683 5682 5680 5680 5680 5678 5679 5679 5677 5676 5676 5676 5675 5673 5673 5672 5671
5727 5724 5721 5718 5716 5714 5712 5710 5707 5705 5702 5700 5698 5697 5695 5693 5691 5689 5688 5685 5684 5681 5678 5676 5675 5675 5674 5673 5672 5672 5671 5671 5671 5672 5671 5669 5669 5668 5668 5668 5667 5666 5665
5722 5719 5715 5713 5711 5709 5708 5704 5701 5699 5696 5694 5693 5691 5690 5689 5687 5685 5682 5680 5677 5674 5671 5669 5668 5667 5666 5665 5665 5665 5664 5663 5663 5663 5662 5662 5661 5661 5660 5660 5660 5659 5659
5716 5712 5709 5706 5705 5704 5702 5699 5696 5693 5690 5688 5686 5685 5684 5682 5680 5678 5676 5674 5672 5668 5665 5663 5661 5659 5659 5659 5658 5657 5656 5655 5655 5655 5654 5654 5654 5654 5654 5654 5654 5653 5652
5709 5706 5703 5699 5698 5698 5696 5693 5690 5686 5683 5681 5679 5677 5676 5675 5671 5669 5669 5668 5666 5664 5662 5659 5656 5655 5654 5653 5651 5650 5649 5649 5649 5648 5647 5647 5647 5647 5647 5648 5647 5647 5646
5702 5698 5695 5692 5690 5690 5688 5685 5682 5679 5676 5674 5671 5669 5667 5666 5665 5662 5660 5659 5657 5656 5655 5653 5651 5650 5649 5647 5645 5645 5643 5641 5641 5641 5640 5640 5640 5641 5642 5642 5641 5641 5641
5694 5691 5689 5686 5683 5682 5680 5677 5674 5671 5668 5666 5664 5662 5660 5659 5657 5655 5652 5650 5649 5649 5648 5646 5645 5643 5642 5641 5639 5637 5636 5635 5635 5634 5633 5633 5634 5633 5634 5635 5635 5635 5635
5687 5684 5681 5678 5676 5674 5672 5669 5666 5663 5661 5658 5656 5654 5653 5651 5649 5646 5644 5642 5641 5641 5639 5638 5636 5635 5634 5633 5632 5631 5630 5628 5627 5627 5627 5627 5627 5627 5627 5628 5628 5628 5628